Skip Page Navigation
NASA JPL Caltech
NASA Logo - Jet Propulsion Laboratory + View the NASA Portal
+ Center for Near-Earth Object Studies
JPL Home Earth Solar System Stars & Galaxies Technology
JPL Solar System Dynamics
BODIES ORBITS EPHEMERIDES TOOLS PHYSICAL DATA DISCOVERY FAQ SITE MAP
IMPORTANT: The SSD Announcement email list is now available. Major changes are coming in the near future, including possible hostname and/or URL changes. To be notified of such changes, subscribe to this email list.

Please visit this page for more details.


JPL Small-Body Database Browser
Search: [ help ]  
109160 (2001 QM62)
Classification: Main-belt Asteroid          SPK-ID: 2109160
Ephemeris | Orbit Diagram | Orbital Elements | Mission Design | Physical Parameters | Discovery Circumstances | Close-Approach Data ]

[ show orbit diagram ]
Orbital Elements at Epoch 2458600.5 (2019-Apr-27.0) TDB
Reference: JPL 16 (heliocentric ecliptic J2000)
 Element Value Uncertainty (1-sigma)   Units 
e .1545479425749571 7.0634e-08  
a 2.584730404890793 1.5783e-08 au
q 2.185265638703985 1.808e-07 au
i 4.409036594877904 5.7503e-06 deg
node 184.7576286725135 6.0808e-05 deg
peri 218.6084197631212 6.2603e-05 deg
M 41.92935740750386 1.2487e-05 deg
tp 2458423.718420415229
(2018-Nov-01.21842042)
5.2791e-05 TDB
period 1517.823610602915
4.16
1.3903e-05
3.806e-08
d
yr
n .2371817103681762 2.1725e-09 deg/d
Q 2.984195171077601 1.8222e-08 au
  Orbit Determination Parameters
   # obs. used (total)      491  
   data-arc span      6457 days (17.68 yr)  
   first obs. used      2001-05-22  
   last obs. used      2019-01-25  
   planetary ephem.      DE431  
   SB-pert. ephem.      SB431-N16  
   condition code      0  
   norm. resid. RMS      .52662  
   source      ORB  
   producer      Otto Matic  
   solution date      2019-Jul-13 07:49:06  

Additional Information
 Earth MOID = 1.1953 au 
 Jupiter MOID = 2.41564 au 
 T_jup = 3.402 
[ show covariance matrix ]

Ephemeris | Orbit Diagram | Orbital Elements | Mission Design | Physical Parameters | Discovery Circumstances | Close-Approach Data ]

Physical Parameter Table
Parameter Symbol Value Units Sigma Reference Notes
absolute magnitude H 16.0   n/a MPO453550  

109160 (2001 QM62)          Discovered 2001-Aug-16 by LINEAR at Socorro
Reference: 20051019/Numbers.arcLast Updated: 2005-10-26

[ show close-approach data ]
Ephemeris | Orbit Diagram | Orbital Elements | Mission Design | Physical Parameters | Discovery Circumstances | Close-Approach Data ]
ABOUT SSD CREDITS/AWARDS PRIVACY/COPYRIGHT GLOSSARY LINKS
FirstGov 2019-Dec-10 02:58 UT
(server date/time)  
NASA Home Page
Site Manager:   Ryan S. Park
Webmaster  Alan B. Chamberlin